This is the latest recevied weather packets stored in our database for station/object MO0NET-13. If no packets are shown the sender has not sent any weather packets the latest 1 day(s).
| Time | Temp. | Humidity | Pressure | Rain* | Wind** | Luminosity | Snow |
|---|---|---|---|---|---|---|---|
| 1778134803 | 11.11° C | 80% | 1014.7 hPa | 0 mm | - | 161 W/m² | - |
| 1778133603 | 10° C | 82% | 1014.6 hPa | 0 mm | - | 168 W/m² | - |
| 1778132403 | 8.89° C | 89% | 1014.6 hPa | 0 mm | - | 89 W/m² | - |
| 1778131203 | 8.33° C | 89% | 1014.4 hPa | 0 mm | - | 58 W/m² | - |
| 1778130003 | 8.33° C | 90% | 1014.2 hPa | 0 mm | - | 33 W/m² | - |
| 1778128803 | 8.33° C | 90% | 1013.9 hPa | 0 mm | - | 18 W/m² | - |
| 1778127603 | 8.33° C | 90% | 1013.6 hPa | 0 mm | - | 7 W/m² | - |
| 1778126403 | 8.33° C | 90% | 1013.5 hPa | 0 mm | - | 2 W/m² | - |
| 1778125203 | 8.33° C | 90% | 1013.4 hPa | 0 mm | - | 0 W/m² | - |
| 1778124003 | 8.89° C | 90% | 1013.2 hPa | 0 mm | - | 0 W/m² | - |
| 1778122803 | 8.89° C | 89% | 1013.1 hPa | 0 mm | - | 0 W/m² | - |
| 1778121603 | 8.89° C | 90% | 1012.9 hPa | 0 mm | - | 0 W/m² | - |
| 1778120403 | 8.89° C | 89% | 1013.2 hPa | 0 mm | - | 0 W/m² | - |
| 1778119203 | 8.89° C | 90% | 1012.9 hPa | 0 mm | - | 0 W/m² | - |
| 1778118003 | 9.44° C | 90% | 1012.8 hPa | 0 mm | - | 0 W/m² | - |
| 1778116803 | 9.44° C | 89% | 1012.5 hPa | 0 mm | - | 0 W/m² | - |
| 1778115603 | 8.89° C | 89% | 1012.6 hPa | 0 mm | - | 0 W/m² | - |
| 1778114403 | 9.44° C | 88% | 1012.6 hPa | 0 mm | - | 0 W/m² | - |
| 1778113203 | 9.44° C | 88% | 1012.4 hPa | 0 mm | - | 0 W/m² | - |
| 1778112003 | 9.44° C | 87% | 1012.5 hPa | 0 mm | - | 0 W/m² | - |
| 1778110803 | 9.44° C | 87% | 1012.3 hPa | 0 mm | - | 0 W/m² | - |
| 1778109603 | 8.89° C | 89% | 1012.2 hPa | 0 mm | - | 0 W/m² | - |
* Rain latest hour (hover to see other rain measurements)
** Current wind speed in m/s (hover to see current wind gust speed)